Flag for Switzerland Weather past 2 weeks in Kloten, Zurich, Switzerland

Now
37 °F

Passing clouds.


Feels Like: 37 °F
Forecast: 29 / 37 °F
Wind: 2 mph from North

Location: Zurich-Kloten

Current Time: Dec 25, 2014 at 8:18:21 PM

Latest Report: Dec 25, 2014 at 7:50 PM


Visibility: N/A

Pressure: 30.39 "Hg

Humidity: 81%

Dew point: 32 °F

Location of KlotenLocation

Historic Weather in Kloten — Graph

°F

Kloten temperature yesterday

Maximum temperature yesterday: 46 °F (at 1:50 PM)
Minimum temperature yesterday: 28 °F (at 2:20 AM)
Average temperature yesterday: 38 °F

Past Weeks' High & Low Weather Summary

 TemperatureHumidityPressure
High54 °F (Dec 13, 1:20 PM)100% (Dec 14, 9:50 PM)30.57 "Hg (Dec 14, 9:50 PM)
Low28 °F (Dec 23, 6:50 AM)46% (Dec 12, 7:20 PM)29.83 "Hg (Dec 12, 7:20 PM)
Average42 °F80%30.16 "Hg
* Reported Dec 10 7:20 PM — Dec 25 7:20 PM, Kloten, Weather by CustomWeather, © 2014

Note: Actual official high and low records may vary slightly from our data, if they occured in-between our weather recording intervals... More about our weather records

Advertising

Kloten weather history for previous 24 hours

 ConditionsComfort  
Time TempWeatherWind HumidityBarometerVisibility
7:20 PM
Dec 25
37 °FPassing clouds.5 mph81%30.39 "HgN/A
6:50 PM39 °FPassing clouds.7 mph75%30.39 "HgN/A
6:20 PM39 °FPassing clouds.7 mph75%30.36 "HgN/A
5:50 PM39 °FPassing clouds.9 mph75%30.36 "HgN/A
5:20 PM39 °FPartly cloudy.8 mph75%30.36 "HgN/A
4:50 PM39 °FPassing clouds.7 mph81%30.36 "HgN/A
4:20 PM39 °FBroken clouds.8 mph81%30.33 "HgN/A
3:50 PM41 °FPartly sunny.9 mph76%30.33 "HgN/A
3:20 PM41 °FPartly sunny.9 mph76%30.33 "HgN/A
2:50 PM41 °FBroken clouds.10 mph76%30.33 "HgN/A
2:20 PM41 °FBroken clouds.13 mph81%30.33 "HgN/A
1:50 PM41 °FPartly sunny.10 mph81%30.33 "HgN/A
1:20 PM41 °FPartly sunny.12 mph81%30.33 "HgN/A
12:50 PM43 °FPartly sunny.14 mph81%30.33 "HgN/A
12:20 PM43 °FBroken clouds.13 mph81%30.33 "HgN/A
11:50 AM43 °FPartly sunny.10 mph87%30.30 "HgN/A
11:20 AM45 °FSprinkles. Partly sunny.12 mph81%30.33 "HgN/A
10:50 AM43 °FSprinkles. Partly sunny.13 mph93%30.30 "HgN/A
10:20 AM43 °FScattered showers. Broken clouds.12 mph93%30.30 "Hg4 mi
9:50 AM43 °FBroken clouds.8 mph93%30.30 "Hg4 mi
9:20 AM43 °FLight rain. Partly sunny.8 mph93%30.30 "Hg3 mi
8:50 AM41 °FLight rain. Partly sunny.3 mph100%30.27 "Hg2 mi
8:20 AM41 °FLight rain. Broken clouds.3 mph100%30.27 "Hg2 mi
7:50 AM41 °FPartly cloudy.2 mph100%30.27 "Hg3 mi
7:20 AM41 °FPartly cloudy.3 mph100%30.27 "Hg4 mi
6:50 AM41 °FPartly cloudy.3 mph100%30.27 "Hg3 mi
6:20 AM41 °FPassing clouds.5 mph100%30.27 "Hg3 mi
5:50 AM43 °FPassing clouds.8 mph87%30.27 "Hg4 mi
5:20 AM43 °FPassing clouds.5 mph87%30.27 "HgN/A
4:20 AM43 °FLight rain. Partly cloudy.10 mph87%30.27 "HgN/A
3:50 AM43 °FLight rain. Partly cloudy.6 mph81%30.27 "HgN/A
3:20 AM45 °FLight rain. Passing clouds.9 mph76%30.27 "HgN/A
2:50 AM45 °FPassing clouds.9 mph71%30.27 "HgN/A
2:20 AM45 °FPassing clouds.7 mph71%30.27 "HgN/A
1:50 AM45 °FPartly cloudy.7 mph71%30.27 "HgN/A
12:50 AM45 °FPassing clouds.6 mph71%30.27 "HgN/A
12:20 AM45 °FPartly cloudy.3 mph66%30.27 "HgN/A
11:50 PM
Dec 24
45 °FPartly cloudy.8 mph71%30.27 "HgN/A
11:20 PM45 °FPartly cloudy.10 mph71%30.27 "HgN/A
10:50 PM45 °FPassing clouds.13 mph71%30.27 "HgN/A
10:20 PM43 °FPassing clouds.7 mph76%30.27 "HgN/A
9:50 PM41 °FPassing clouds.9 mph76%30.27 "HgN/A
9:20 PM41 °FPassing clouds.8 mph76%30.27 "HgN/A
8:50 PM41 °FPassing clouds.7 mph76%30.30 "HgN/A
8:20 PM36 °FPassing clouds.6 mph87%30.27 "HgN/A
Weather by CustomWeather, © 2014

See weather overviewHow to use our weather pages